Theta_e
312 312 312 312 312 312 311 312 314 313 313 314 314 313 311 311 311 313 320 318 318 323 332 342 344 353 353 354 352 350 360 354 347 347 349 345 346 344 342 342 342 342 344 345 344
312 312 312 313 313 313 312 311 314 313 312 314 314 313 312 311 312 319 318 314 313 322 331 340 346 353 354 353 352 352 358 352 348 345 347 346 345 343 343 346 347 344 345 344 343
312 312 313 313 313 313 312 311 314 313 313 314 313 312 311 312 320 326 319 313 314 322 339 336 344 350 352 350 351 353 356 346 345 346 345 346 345 344 344 348 346 344 345 344 344
312 312 313 313 313 313 313 312 314 313 314 314 312 312 311 312 325 329 316 313 315 330 336 333 339 347 351 349 349 353 349 347 347 346 346 347 346 345 347 346 346 344 345 345 345
312 312 313 314 313 313 313 313 314 314 316 315 312 311 311 321 319 323 317 315 322 330 331 332 341 347 348 348 350 351 349 349 349 347 347 347 348 347 346 347 346 346 346 346 345
314 311 312 314 314 313 313 314 315 316 316 314 311 311 318 320 318 319 326 324 329 328 329 331 335 342 344 346 348 348 343 344 348 349 349 349 348 349 350 349 348 347 347 345 345
321 314 312 313 314 314 313 315 315 316 317 315 311 311 319 320 322 326 327 328 325 324 324 325 329 333 343 345 341 341 343 341 343 348 349 351 351 354 350 351 350 348 347 346 345
321 317 312 313 314 314 314 315 316 316 317 311 310 314 320 317 323 325 325 325 325 322 322 323 323 330 341 342 342 348 343 346 346 345 348 350 355 353 350 352 352 349 348 348 346
322 317 313 313 314 314 315 316 316 315 316 314 317 324 320 314 321 323 321 321 322 322 322 324 323 332 339 343 346 346 348 346 345 343 346 349 352 352 351 353 353 351 349 348 347
323 319 313 313 314 314 316 316 316 315 316 312 319 324 320 318 323 322 322 322 322 322 324 322 326 333 337 341 347 348 347 346 347 345 347 352 352 353 351 353 353 352 351 349 348
323 320 313 314 314 315 317 321 323 323 323 324 318 324 320 322 321 322 321 320 320 323 325 324 328 331 334 338 340 343 346 347 346 345 344 348 355 350 350 352 353 353 352 350 348
323 321 313 314 314 316 319 322 320 320 322 318 318 321 320 320 320 320 320 320 321 324 325 328 329 330 331 333 338 342 346 349 346 340 341 346 348 347 348 349 352 353 352 350 347
323 322 314 314 314 317 321 321 319 318 323 319 317 321 319 320 320 320 319 320 321 323 325 328 328 330 331 334 336 340 341 342 342 339 339 342 345 348 347 348 349 350 351 350 347
323 323 315 314 319 319 321 320 318 318 324 320 319 321 320 321 321 319 319 320 321 322 325 327 328 330 332 333 333 336 337 341 341 339 343 342 347 346 345 348 349 350 350 351 347
322 322 315 314 317 319 321 319 318 319 326 321 321 320 320 321 321 320 319 320 322 322 324 325 328 329 331 331 331 332 335 338 339 342 342 343 345 347 347 348 348 348 350 350 349
319 321 314 317 315 319 319 319 318 322 325 320 321 321 321 320 320 319 319 320 322 323 324 325 324 326 328 330 330 331 332 334 336 339 343 343 342 343 348 349 348 347 348 350 350
317 315 315 316 322 318 319 320 324 324 323 321 321 321 320 320 320 320 320 321 321 322 322 323 322 324 325 327 328 329 330 333 334 335 336 337 340 342 342 342 345 348 347 349 350
315 315 317 316 319 319 320 324 326 324 323 321 321 320 320 321 320 320 321 322 322 323 324 322 322 322 322 326 327 327 328 328 330 330 332 334 336 338 339 339 339 339 346 347 350
313 319 321 321 319 320 322 325 326 324 322 321 320 319 321 320 321 320 321 322 321 322 324 323 323 323 323 323 325 326 326 328 328 329 330 332 334 336 337 339 337 338 339 346 348
314 321 323 319 320 320 324 324 324 322 321 321 320 320 321 320 321 320 321 322 322 322 323 324 324 322 321 322 323 324 327 326 326 328 330 331 335 337 336 338 338 338 339 344 348
317 323 323 319 319 320 324 324 323 320 320 321 322 322 323 321 320 320 321 322 322 322 321 323 323 323 322 322 323 323 325 327 327 327 328 330 330 333 336 342 338 337 341 341 342
319 325 323 320 322 321 324 324 318 321 320 322 323 323 323 323 322 321 322 323 320 322 322 323 324 325 323 324 324 325 325 324 327 328 328 328 336 339 341 348 349 350 352 351 350
321 324 323 320 324 325 323 323 321 321 322 322 322 322 323 323 324 323 323 320 321 322 324 324 322 324 325 324 323 323 324 326 327 328 329 330 335 348 350 352 354 354 356 357 354
321 327 324 321 321 324 325 322 321 320 321 321 322 322 323 323 324 324 323 320 320 323 316 321 323 325 325 327 326 323 325 325 326 327 329 330 332 355 353 355 354 355 356 356 357
322 326 324 327 324 323 323 322 321 320 320 321 323 323 323 323 323 323 323 321 320 318 321 322 323 324 324 325 324 325 325 324 324 325 327 328 329 351 351 348 347 348 351 353 353
322 325 324 322 323 324 320 323 322 321 321 322 323 322 322 324 324 323 323 323 322 322 323 323 324 325 326 324 324 323 323 323 323 324 325 327 330 344 345 344 346 345 345 349 350
322 321 318 321 323 324 323 322 322 322 320 321 322 322 322 322 320 320 320 321 322 323 323 323 323 325 325 324 323 323 323 323 323 323 323 326 333 339 343 345 344 344 342 343 345
Wind_Speed
16 15 13 13 13 14 14 13 12 10 8 10 11 10 9 8 6 5 4 8 9 7 10 5 7 7 6 7 7 7 8 3 6 13 14 16 14 12 15 16 6 6 19 22 22
17 16 15 15 13 12 12 13 12 10 7 7 9 8 7 7 5 7 12 11 10 11 9 10 9 9 13 7 8 8 5 6 13 13 15 17 16 18 15 13 10 16 22 21 21
17 17 17 17 17 15 13 12 12 9 8 7 6 6 5 4 4 5 10 9 10 12 9 9 6 9 15 7 12 18 7 10 14 11 17 12 15 16 13 13 14 20 23 22 18
18 20 19 17 16 16 15 13 12 9 7 7 5 3 2 3 1 4 6 11 13 15 7 11 11 13 13 8 7 5 6 8 14 6 14 12 13 14 6 20 17 21 22 21 18
18 19 19 19 18 16 14 13 11 10 10 8 5 1 2 6 0 5 7 12 15 9 10 11 13 15 10 2 9 11 11 4 4 9 12 11 9 11 14 15 18 21 21 20 17
18 19 19 19 18 17 13 10 11 10 8 6 3 2 2 10 1 3 10 15 10 11 10 11 10 8 12 6 3 12 5 2 4 8 4 11 15 11 18 17 20 21 19 18 17
19 19 19 19 18 17 12 8 9 8 7 5 1 3 6 2 6 9 12 13 11 10 9 10 7 10 5 6 3 3 2 2 8 17 15 9 13 20 19 19 21 20 18 17 16
19 18 18 18 17 17 9 7 7 5 5 4 2 4 1 5 8 12 12 11 10 9 8 7 10 14 13 4 7 5 3 3 20 10 8 2 8 19 19 20 20 20 19 16 16
20 18 18 17 16 14 7 7 4 4 3 3 3 3 6 8 11 13 12 11 10 8 8 6 11 15 12 11 14 11 7 10 15 13 10 9 1 15 20 19 18 20 20 19 18
20 19 17 17 15 9 5 5 3 2 1 3 4 6 9 12 12 14 12 9 11 9 7 10 11 12 13 14 14 16 20 15 7 6 11 21 5 22 16 20 19 19 20 19 20
19 18 16 15 13 4 5 4 2 3 8 8 6 3 12 11 11 14 13 11 9 13 11 16 11 15 18 19 6 12 5 1 6 10 8 5 25 14 15 18 19 19 19 19 20
18 18 16 13 10 1 4 5 3 3 7 5 6 5 6 11 13 15 15 12 12 13 15 11 15 15 18 16 14 10 14 25 15 8 8 10 12 10 13 12 19 19 19 19 20
19 17 15 13 5 1 2 1 2 4 8 7 8 9 11 12 14 17 17 17 12 15 16 13 13 14 5 7 9 16 14 11 8 13 11 9 10 14 12 11 12 15 18 19 21
19 18 15 9 3 2 3 2 4 2 6 11 13 8 10 9 5 13 17 11 11 15 12 15 4 4 10 15 15 17 15 5 12 10 14 15 6 8 13 15 13 16 19 20 21
19 18 14 8 5 3 2 2 3 3 6 15 13 14 17 14 16 12 10 10 12 12 10 14 10 12 13 15 13 15 6 11 10 14 15 11 10 9 13 13 16 18 20 22 22
20 18 13 5 4 5 4 4 1 7 2 9 10 12 14 14 10 13 13 11 7 10 12 10 7 11 14 14 9 14 3 10 14 14 15 17 13 12 12 15 17 20 23 23 24
19 15 7 5 1 4 4 6 7 8 8 11 14 16 18 12 11 16 15 14 10 12 12 13 11 14 10 12 11 15 11 9 12 13 14 17 18 14 7 6 13 10 24 24 24
18 8 3 5 5 4 5 9 8 3 6 5 11 14 15 13 13 15 13 12 8 9 10 12 14 16 13 18 12 15 18 12 16 12 15 17 17 14 12 8 5 6 13 24 25
13 2 2 3 6 6 12 10 6 3 4 9 11 13 10 10 5 11 13 13 6 7 9 6 3 14 9 12 15 16 17 20 21 19 9 12 19 10 7 9 9 7 10 15 25
11 5 6 4 5 5 10 15 2 2 3 8 15 14 13 16 11 12 9 4 6 5 9 5 5 10 11 7 11 16 5 14 11 16 15 13 13 12 17 12 10 7 7 14 15
4 7 7 5 4 11 11 9 4 6 9 9 14 11 12 12 15 14 11 7 2 4 8 11 10 11 9 11 15 12 12 12 16 14 13 11 9 12 7 4 12 17 6 2 11
8 6 5 7 11 15 12 4 2 12 10 6 6 11 10 9 11 10 7 4 2 6 11 11 7 9 15 7 6 7 11 18 9 14 11 14 3 12 13 13 8 13 9 8 10
8 13 3 9 8 10 8 5 10 7 10 10 7 5 4 8 4 4 7 2 1 6 7 3 9 8 9 11 7 12 11 9 12 12 12 12 5 14 12 13 12 10 7 7 7
7 5 10 12 19 13 9 12 11 6 4 4 4 7 9 8 3 6 7 4 1 0 4 4 15 14 6 6 6 17 7 9 11 10 11 13 12 18 13 10 13 12 10 9 10
6 5 6 5 12 12 16 12 15 10 9 10 8 11 11 8 8 9 9 5 8 5 5 6 13 13 17 5 8 3 9 9 11 12 13 7 12 17 9 7 6 8 9 8 9
7 8 6 16 12 11 10 15 16 16 13 13 10 8 6 8 7 5 9 10 8 8 11 11 12 10 12 10 11 12 11 11 11 11 10 13 14 14 7 6 6 8 10 9 7
8 10 10 13 16 13 14 16 16 12 7 6 10 9 9 6 3 4 3 6 5 7 8 9 10 8 15 17 15 17 14 14 14 14 14 14 6 10 7 5 6 5 8 8 8
Wind_Direction
1 356 351 346 340 335 330 332 336 334 325 322 321 317 307 299 286 276 251 225 221 208 180 174 196 211 218 245 233 263 0 310 116 119 123 119 112 91 104 126 122 75 134 138 145
355 353 350 346 341 334 325 323 330 333 321 321 324 321 314 307 286 250 238 230 214 194 176 188 201 199 229 239 213 247 130 237 91 116 126 121 119 127 135 118 115 111 120 138 145
351 349 347 346 343 338 329 321 324 330 320 320 326 326 323 310 281 135 233 203 189 178 182 205 228 222 252 222 230 97 249 103 111 103 136 132 125 147 135 138 128 134 140 146 150
351 349 345 344 342 338 331 323 321 323 315 315 320 323 320 261 301 278 208 181 172 162 208 221 223 225 244 208 220 204 36 100 116 180 126 156 138 123 107 104 130 143 148 151 155
350 349 344 342 341 339 333 325 321 320 310 297 300 280 180 223 226 302 187 164 161 178 196 213 216 236 256 186 207 331 98 37 163 176 152 115 145 113 104 112 132 144 151 154 155
348 348 344 340 338 337 332 327 325 326 325 313 273 205 208 240 142 181 157 156 171 182 199 214 232 257 303 271 222 145 76 60 250 142 164 187 135 181 123 132 138 149 156 159 154
346 347 342 340 337 338 334 329 326 334 341 324 260 179 257 57 158 163 170 168 179 187 200 216 249 245 253 209 80 84 201 90 245 172 158 229 155 141 141 144 148 156 161 160 160
344 343 340 339 339 336 332 333 328 335 2 351 158 168 19 151 162 160 163 181 193 205 221 226 231 251 258 79 196 139 333 170 272 200 173 175 304 133 150 153 158 161 163 166 167
341 340 338 338 338 336 334 334 326 326 324 20 72 207 150 174 170 168 166 172 180 198 218 232 216 231 220 235 198 166 161 235 214 187 171 146 202 175 164 155 163 167 167 172 171
339 340 341 339 337 339 335 339 317 318 335 102 241 236 175 188 164 174 176 183 181 183 190 201 214 222 237 222 214 186 163 211 206 191 237 117 262 255 178 161 162 172 173 178 178
340 341 344 336 336 338 353 334 284 208 221 305 142 334 136 150 163 179 177 177 190 197 201 203 214 213 213 225 248 309 163 36 187 223 262 269 187 148 170 170 165 172 179 183 185
340 339 343 335 334 279 56 295 21 338 280 213 229 238 180 176 178 183 181 197 201 211 218 192 224 224 236 227 251 219 231 186 198 204 256 207 227 195 167 197 174 181 177 186 187
338 337 341 334 337 190 291 186 331 316 247 147 195 196 185 188 189 178 193 210 201 225 203 213 206 236 178 231 236 240 240 181 209 176 236 259 200 153 187 195 194 177 183 190 187
336 332 338 340 48 276 227 249 328 278 258 144 180 181 176 220 172 168 197 204 213 225 196 235 166 141 210 230 218 237 237 282 184 224 214 205 235 223 195 186 200 188 190 190 187
333 329 331 312 250 251 188 311 282 243 246 147 148 152 174 209 133 191 192 208 234 224 204 214 163 205 219 221 219 243 230 210 249 243 265 213 235 191 242 196 192 200 201 195 188
332 327 325 317 256 214 235 284 217 235 183 154 149 187 184 208 198 149 184 229 289 212 222 264 206 214 223 218 220 247 163 249 244 250 231 241 255 188 209 223 202 196 198 204 188
332 324 310 195 95 217 242 220 222 258 126 150 179 178 196 186 158 172 180 192 188 198 200 209 195 223 250 199 197 235 207 214 219 226 240 233 225 233 198 187 223 190 191 197 197
332 319 291 223 233 207 238 232 252 10 183 118 181 191 205 171 175 181 188 180 258 257 193 192 192 199 193 233 193 217 226 229 211 229 231 224 251 236 187 205 199 249 194 191 201
336 313 261 278 216 220 246 232 236 174 108 189 196 197 184 185 214 194 202 208 154 255 314 194 163 166 199 222 245 196 226 252 268 277 280 248 204 238 238 223 225 212 218 203 195
335 253 208 211 198 234 249 258 41 334 240 220 198 199 186 200 212 205 189 66 154 257 289 355 152 188 182 239 235 262 287 224 241 257 259 238 225 209 199 193 213 221 222 200 204
325 245 177 195 220 236 243 243 163 175 222 222 221 185 225 194 220 203 184 120 244 201 265 283 249 151 152 209 210 202 233 242 250 219 249 238 245 236 134 52 197 206 293 279 217
287 250 165 193 235 230 243 222 347 169 197 200 300 221 205 182 223 200 174 55 244 284 222 232 280 183 204 121 326 313 225 225 236 231 249 262 36 35 82 95 9 39 32 344 302
282 286 242 203 246 233 214 219 216 185 198 192 178 249 299 203 162 247 92 88 223 231 354 294 248 228 156 175 210 249 232 268 261 267 251 236 180 104 75 88 60 49 26 15 349
289 269 203 223 256 285 255 224 199 269 154 260 143 176 181 182 212 189 155 164 138 219 336 300 266 280 275 17 337 194 210 232 257 220 239 244 233 126 95 44 54 14 19 27 27
246 267 348 251 229 240 262 229 203 178 215 200 199 207 207 196 193 194 166 151 196 158 237 252 262 272 273 129 284 309 200 203 239 263 274 243 306 77 86 81 31 26 358 20 19
287 307 305 267 283 275 234 245 222 188 189 196 242 198 175 237 216 236 204 194 203 188 234 237 253 277 263 258 240 254 227 245 257 271 274 276 285 90 84 67 30 18 6 1 27
266 275 267 277 243 240 240 222 227 183 214 259 216 175 211 117 79 2 355 331 19 252 232 249 254 220 253 246 236 243 246 253 255 245 248 248 17 14 346 50 360 5 353 340 350